EA3E-2 Weather Reports


time (UTC)temp
C
wind
direction
speed
KPH
gust
KPH
rain 1hr
cm
rain 24hr
cm
rain mn
cm
humidity
%
barometer
mb
20260507183702 16 0 0.0 0.0 0.00 0.00 0.00 80 1012.1
20260507182802 16 129 3.2 6.4 0.00 0.00 0.00 79 1012.0
20260507181902 16 127 4.8 11.3 0.00 0.00 0.00 79 1012.0
20260507181002 16 127 4.8 6.4 0.00 0.00 0.00 77 1011.9
20260507175202 17 125 4.8 11.3 0.00 0.00 0.00 75 1011.9
20260507174302 17 131 6.4 11.3 0.00 0.00 0.00 74 1012.0
20260507173402 17 122 6.4 14.5 0.00 0.00 0.00 72 1012.0
20260507172502 17 120 6.4 14.5 0.00 0.00 0.00 70 1011.9
20260507171603 17 132 6.4 12.9 0.00 0.00 0.00 69 1011.9
20260507170702 17 139 6.4 12.9 0.00 0.00 0.00 68 1011.8
20260507165802 17 126 6.4 12.9 0.00 0.03 0.00 67 1012.0
20260507164002 18 133 8.0 16.1 0.00 0.05 0.00 66 1012.0
20260507163102 18 133 6.4 16.1 0.00 0.05 0.00 66 1012.0
20260507162202 18 134 8.0 16.1 0.00 0.05 0.00 65 1012.0
20260507161302 18 131 8.0 17.7 0.00 0.05 0.00 65 1011.9
20260507160402 18 118 8.0 14.5 0.00 0.05 0.00 65 1011.9
20260507155502 18 124 8.0 16.1 0.00 0.05 0.00 65 1011.9
20260507154602 18 131 9.7 16.1 0.00 0.05 0.00 66 1011.8
20260507153702 18 120 11.3 17.7 0.00 0.05 0.00 66 1012.0
20260507152802 18 112 11.3 17.7 0.00 0.05 0.00 66 1011.9
20260507151902 17 117 9.7 17.7 0.00 0.23 0.00 67 1011.9
20260507151003 18 118 12.9 20.9 0.00 1.45 0.00 66 1012.0
20260507145202 18 125 12.9 24.1 0.00 1.78 0.00 67 1012.0
20260507144302 18 130 12.9 22.5 0.00 1.78 0.00 68 1012.1
20260507143402 18 128 14.5 24.1 0.00 1.78 0.00 68 1012.1
20260507141603 18 127 12.9 24.1 0.00 1.78 0.00 69 1012.3
20260507140702 18 124 12.9 24.1 0.00 1.78 0.00 70 1012.1
20260507135802 18 132 14.5 29.0 0.00 1.78 0.00 67 1012.4
20260507134002 18 129 17.7 29.0 0.00 1.78 0.00 69 1012.6
20260507133102 18 127 16.1 30.6 0.00 1.78 0.00 70 1012.6
20260507132202 18 133 16.1 27.4 0.00 1.78 0.00 69 1012.7
20260507131302 18 127 16.1 29.0 0.00 1.78 0.00 70 1012.6
20260507130402 18 130 16.1 29.0 0.00 1.78 0.00 68 1012.6
20260507125502 18 133 14.5 27.4 0.00 1.78 0.00 67 1012.7
20260507123702 18 123 14.5 27.4 0.00 1.78 0.00 69 1012.7
20260507121903 18 133 11.3 20.9 0.00 1.78 0.00 71 1012.7
20260507121002 18 131 11.3 22.5 0.00 1.78 0.00 71 1012.6
20260507115202 18 127 11.3 25.7 0.00 1.78 0.00 73 1012.7
20260507113402 18 127 9.7 20.9 0.00 1.78 0.00 72 1012.9
20260507112502 18 126 8.0 19.3 0.00 2.08 0.00 73 1012.9
20260507111602 18 127 9.7 19.3 0.00 2.11 0.00 74 1012.9
20260507110702 18 133 8.0 19.3 0.00 2.11 0.00 72 1013.0
20260507104902 18 141 4.8 12.9 0.00 2.11 0.00 72 1012.9
20260507104003 18 144 4.8 16.1 0.00 2.11 0.00 73 1013.1
20260507103102 18 148 3.2 19.3 0.00 2.11 0.00 73 1013.3
20260507102202 18 128 4.8 8.0 0.00 2.11 0.00 74 1013.3
20260507101302 18 130 3.2 14.5 0.00 2.11 0.00 73 1013.4
20260507100402 18 128 0.0 12.9 0.00 2.11 0.00 75 1013.4
20260507095502 17 0 0.0 0.0 0.00 2.11 0.00 76 1013.4
20260507093702 17 99 1.6 4.8 0.00 2.11 0.00 76 1013.4
20260507092802 17 102 1.6 6.4 0.00 2.11 0.00 75 1013.4
20260507091902 17 145 1.6 9.7 0.00 2.11 0.00 75 1013.3
20260507091002 17 152 0.0 8.0 0.00 2.11 0.00 76 1013.4
20260507085202 16 151 0.0 6.4 0.00 2.11 0.00 77 1013.4
20260507084302 16 120 0.0 1.6 0.00 2.11 0.00 78 1013.5
20260507082502 16 120 0.0 3.2 0.00 2.11 0.00 76 1013.7
20260507081602 16 0 0.0 0.0 0.00 2.11 0.00 77 1013.8
20260507075802 15 192 0.0 4.8 0.00 2.11 0.00 80 1013.9
20260507074902 15 235 0.0 3.2 0.00 2.11 0.00 79 1013.8
20260507073102 15 0 0.0 0.0 0.00 2.11 0.00 80 1013.7
20260507072202 15 0 0.0 0.0 0.00 2.11 0.00 82 1013.6
20260507071302 13 0 0.0 0.0 0.00 2.11 0.00 84 1013.6
20260507065502 13 0 0.0 0.0 0.00 2.11 0.00 89 1013.6
20260507064602 12 0 0.0 0.0 0.00 2.11 0.00 90 1013.6
20260507063702 12 0 0.0 0.0 0.00 2.11 0.00 90 1013.5
20260507062802 12 230 0.0 1.6 0.00 2.11 0.00 91 1013.6
20260507061902 11 230 3.2 4.8 0.00 2.11 0.00 91 1013.3
20260507061002 11 230 3.2 4.8 0.00 2.11 0.00 91 1013.3
20260507054302 10 239 4.8 6.4 0.00 2.11 0.00 92 1013.2
20260507053402 10 244 1.6 6.4 0.00 2.11 0.00 91 1013.3
20260507052502 10 247 1.6 6.4 0.00 2.11 0.00 92 1013.1
20260507051602 10 248 3.2 4.8 0.00 2.11 0.00 92 1013.1
20260507050702 10 246 3.2 4.8 0.00 2.11 0.00 91 1013.1
20260507044902 10 232 3.2 8.0 0.00 2.11 0.00 91 1013.1
20260507043102 10 219 1.6 4.8 0.00 2.11 0.00 91 1013.0
20260507042202 10 243 3.2 4.8 0.00 2.11 0.00 91 1013.1
20260507041302 10 244 1.6 6.4 0.00 2.11 0.00 91 1013.0
20260507040402 10 0 0.0 0.0 0.00 2.11 0.00 91 1013.0
20260507035502 11 0 0.0 0.0 0.00 2.11 0.00 91 1013.0
20260507034602 11 0 0.0 0.0 0.00 2.11 0.00 91 1012.9
20260507033702 11 0 0.0 0.0 0.00 2.11 0.00 91 1013.0
20260507032802 11 0 0.0 0.0 0.00 2.11 0.00 91 1013.0
20260507031902 11 0 0.0 0.0 0.00 2.11 0.00 91 1012.9
20260507031002 11 0 0.0 0.0 0.00 2.11 0.00 90 1012.8
20260507023402 12 0 0.0 0.0 0.00 2.11 0.00 90 1013.0
20260507022503 12 0 0.0 0.0 0.00 2.11 0.00 90 1013.0
20260507021602 12 0 0.0 0.0 0.00 2.11 0.00 90 1013.1
20260507015802 12 0 0.0 0.0 0.00 2.11 0.00 90 1013.0
20260507014902 12 0 0.0 0.0 0.00 2.11 0.00 90 1012.9
20260507014002 12 0 0.0 0.0 0.00 2.11 0.00 89 1013.1
20260507013102 12 0 0.0 0.0 0.00 2.11 0.00 89 1013.2
20260507012202 12 0 0.0 0.0 0.00 2.11 0.00 89 1013.3
20260507011302 12 0 0.0 0.0 0.00 2.11 0.00 88 1013.3
20260507010402 12 0 0.0 0.0 0.00 2.11 0.00 88 1013.4
20260507005502 12 244 3.2 4.8 0.00 2.11 0.00 88 1013.5
20260507004602 12 244 3.2 6.4 0.00 2.11 0.00 88 1013.4
20260507003702 12 240 3.2 9.7 0.00 2.11 0.00 88 1013.7
20260507002802 12 238 0.0 9.7 0.00 2.11 0.00 89 1013.6
20260507001902 12 0 0.0 0.0 0.00 2.11 0.00 91 1013.7
20260507001002 12 0 0.0 0.0 0.00 2.11 0.00 91 1013.7
20260506235202 12 0 0.0 0.0 0.00 2.11 0.00 91 1013.8
20260506234302 12 0 0.0 0.0 0.00 2.11 0.00 91 1013.8
20260506233402 12 0 0.0 0.0 0.00 2.11 0.00 91 1013.8
20260506232502 12 0 0.0 0.0 0.00 2.11 0.00 91 1013.8
20260506231602 12 264 1.6 3.2 0.00 2.11 0.00 91 1013.9
20260506230702 12 254 3.2 6.4 0.00 2.11 0.00 91 1013.8
20260506225802 12 225 1.6 4.8 0.00 2.11 0.00 91 1013.9
20260506224002 12 0 0.0 0.0 0.00 2.11 0.00 91 1013.9
20260506223101 12 0 0.0 0.0 0.00 2.11 0.00 91 1014.0
20260506222202 12 0 0.0 0.0 0.00 2.11 0.00 91 1013.9
20260506221302 12 0 0.0 0.0 0.00 2.11 0.00 91 1013.9
20260506215502 12 268 3.2 6.4 0.00 2.11 2.11 91 1013.9
20260506214602 12 270 3.2 6.4 0.00 2.11 2.11 91 1013.9
20260506213702 12 274 0.0 6.4 0.00 2.11 2.11 91 1013.9
20260506212801 12 0 1.6 0.0 0.00 2.11 2.11 92 1013.8
20260506211902 12 277 1.6 4.8 0.00 2.11 2.11 92 1013.9
20260506211001 13 0 0.0 0.0 0.00 2.11 2.11 91 1013.8
20260506203402 13 0 0.0 0.0 0.00 2.11 2.11 91 1013.8
20260506202502 13 0 0.0 0.0 0.00 2.11 2.11 91 1013.8
20260506201601 13 0 0.0 0.0 0.00 2.11 2.11 91 1013.7
20260506200702 13 0 0.0 0.0 0.00 2.11 2.11 91 1013.6
20260506195801 13 280 1.6 3.2 0.00 2.11 2.11 91 1013.5
20260506194901 13 280 0.0 6.4 0.00 2.11 2.11 91 1013.3
20260506194002 13 279 1.6 4.8 0.00 2.11 2.11 91 1013.1
20260506193101 13 280 3.2 4.8 0.00 2.11 2.11 91 1013.1
20260506192202 13 280 3.2 6.4 0.00 2.11 2.11 91 1012.9
20260506191301 13 283 3.2 4.8 0.00 2.11 2.11 91 1012.9
20260506190401 13 288 4.8 9.7 0.00 2.11 2.11 91 1012.8
20260506185502 13 291 4.8 9.7 0.00 2.11 2.11 91 1012.8
20260506184602 13 283 4.8 12.9 0.00 2.11 2.11 91 1012.7